Lid_Strength_Index
-2 -2 -2 -2 -1 -1 -1 -1 -1 -1 -1 -1 -1 -1 -1 -1 -1 1 4 1 1 -2 0 3 6 5 6 6 6 7 12 13 12 13 12 11 11 10 8 8 8 6 7 5 3
-2 -2 -2 -2 -1 -1 -2 -1 -1 -1 -1 -1 -1 -1 -1 -1 1 3 -0 -2 -2 -1 3 4 6 6 7 8 7 9 12 12 10 13 14 13 12 10 10 9 9 8 5 3 3
-1 -1 -1 -1 -1 -1 -1 -1 -1 -1 -1 -1 -1 -1 -1 -1 4 4 -2 -2 -2 -1 2 3 5 6 9 8 8 9 11 9 9 11 12 13 12 11 10 10 9 8 6 4 4
-1 -1 -1 -1 -1 -1 -1 -1 -1 -1 -1 -1 -1 -1 -0 1 11 2 -1 -2 -2 0 3 5 7 8 9 10 7 11 8 8 8 10 12 13 13 12 10 10 9 6 5 4 4
-1 -1 -1 -1 -1 -1 -1 -1 -1 -1 -1 -1 -1 -1 1 5 5 0 -1 -1 -0 2 3 5 7 7 9 8 8 10 9 8 7 8 10 12 13 13 12 10 7 5 4 5 4
-1 -1 -1 -1 -1 -1 -1 -1 -1 -1 -1 -1 -1 -1 3 9 1 -0 -0 0 1 3 4 4 7 5 8 8 9 8 8 8 7 7 10 12 12 13 12 7 6 5 5 5 4
-1 -1 -1 -1 -1 -1 -1 -1 -1 -1 -1 -2 -1 0 4 6 1 1 -0 1 1 3 4 4 4 6 6 9 7 8 11 9 8 8 9 11 13 12 12 7 7 6 6 5 4
-1 -1 -1 -1 -1 -1 -1 -1 -1 -1 -1 -1 -1 2 6 1 2 2 0 2 2 3 4 3 3 6 7 6 8 11 11 14 10 9 8 9 13 8 11 7 7 7 7 5 5
-1 -1 -1 -1 -1 -1 -1 -1 -1 -1 -1 -1 2 3 7 0 3 2 1 3 3 3 3 2 3 8 8 10 13 12 16 15 13 8 10 9 12 8 8 8 8 8 7 6 5
-0 -0 -1 -1 -1 -1 -1 -1 -1 -1 -0 0 1 6 5 6 3 2 1 2 4 4 5 6 7 10 10 12 17 16 14 14 14 11 13 14 11 10 11 12 9 8 7 6 6
-0 -1 -1 -1 -1 -1 -0 1 4 6 4 7 6 6 5 4 1 3 2 3 4 6 10 8 11 13 12 10 11 12 13 14 12 10 13 13 13 12 11 14 14 13 8 7 6
-0 -1 -1 -1 -1 -1 0 5 5 4 8 4 4 4 4 3 7 5 2 7 8 11 9 11 13 10 9 9 11 12 14 14 11 10 12 13 13 11 12 12 11 13 12 8 6
-0 -0 -1 -1 -1 0 2 3 1 2 8 7 5 6 5 5 7 7 4 6 9 11 11 13 11 8 10 11 13 12 13 14 14 12 12 13 13 13 12 11 11 12 12 11 8
-0 -0 -1 -1 2 2 4 1 1 2 12 11 8 6 5 5 8 4 3 6 9 11 10 11 8 10 11 12 11 14 11 12 12 14 17 12 19 13 12 12 12 10 11 12 12
-0 -0 -1 -1 3 4 2 1 2 4 20 10 9 4 5 8 7 7 3 6 10 11 10 12 11 11 12 12 10 12 10 12 13 14 14 15 16 14 14 13 12 10 10 9 10
-0 -0 -1 1 2 2 0 2 3 13 20 12 8 9 9 8 8 7 7 5 6 9 9 10 8 9 10 9 9 9 11 12 12 14 19 15 16 16 14 12 12 10 8 8 8
-0 -0 1 1 4 0 0 4 13 17 13 14 12 10 10 11 10 9 10 11 13 15 15 12 11 9 8 11 10 11 13 19 20 20 20 14 16 14 12 11 11 11 10 9 8
-0 -0 1 2 1 0 3 10 17 18 16 10 10 10 13 10 10 10 11 13 10 11 14 16 18 11 9 11 13 13 13 18 22 21 19 15 19 15 10 8 10 10 10 11 11
0 3 3 2 1 1 7 14 17 17 12 12 11 14 13 11 11 11 12 12 10 10 15 16 16 9 9 9 10 13 15 11 17 23 20 17 16 13 12 12 13 11 11 12 11
3 4 4 2 1 3 10 15 16 9 9 10 15 12 15 14 13 13 12 10 11 9 8 12 16 11 11 9 10 11 9 16 15 22 22 19 18 16 13 12 12 13 12 12 12
4 7 4 2 2 7 13 14 13 8 8 11 12 13 13 14 13 14 12 10 9 9 9 10 13 14 11 13 13 13 14 13 13 16 20 22 18 14 11 10 12 12 12 12 12
7 12 4 3 9 11 15 14 9 9 8 9 10 12 14 13 13 13 13 11 7 8 12 10 12 16 14 13 11 10 12 12 16 18 18 18 18 14 12 13 13 12 12 13 13
9 10 4 6 14 14 13 11 9 9 9 10 11 10 10 12 14 12 11 8 8 9 11 9 13 18 17 13 11 13 11 11 12 15 17 18 16 14 15 14 14 13 13 13 13
10 12 9 7 14 14 14 14 13 8 9 9 9 8 10 12 11 13 12 9 8 8 8 8 12 14 18 16 13 15 13 11 13 16 15 15 14 14 15 14 14 14 14 14 14
11 16 11 13 13 14 15 14 13 12 9 8 10 11 11 16 14 14 12 12 9 8 9 10 14 13 12 11 12 13 13 13 14 13 15 13 14 13 14 14 13 14 15 14 14
12 12 11 18 12 12 14 18 15 15 11 11 11 10 11 14 14 14 11 11 12 9 10 9 14 14 16 13 12 13 13 12 12 12 12 12 13 12 12 15 15 14 14 14 13
9 9 10 10 12 12 14 16 13 10 9 8 9 10 11 11 9 9 8 9 9 10 12 12 14 14 16 15 14 17 14 13 12 11 11 14 11 12 13 14 13 13 13 12 11